User: anonymous   Login
Location: Unspecified
(0.0000°N, 0.0000°E)
Time: 18:18:57
(UTC+00:00)
Language:

HAWK-7B - Orbit

View from above orbital plane
View from above orbital plane
View from above satellite
View from above satellite

Ground track
Ground track

The orbit is defined by the following mean orbital elements,

1 56193U          26145.24372465 +.00000000 +00000-0 +20543-3 0 00005
2 56193  97.2760  31.4205 0003820 110.7880 249.3769 15.27079889    06
Epoch (UTC): 25 May 2026 05:50:57
Eccentricity: 0.0003820
inclination: 97.2760°
perigee height: 482 km
apogee height: 487 km
right ascension of ascending node: 31.4205°
argument of perigee: 110.7880°
revolutions per day: 15.27079889
mean anomaly at epoch: 249.3769°

The dashed part of the orbit path shows where the satellite is in the earth's shadow,  

DLR